Temperature
12 12 13 13 13 13 13 13 13 13 14 14 14 14 15 15 15 15 15 15 15 15 15 15 16 16 16 16 16 16 16 16 16 16 16 16 16 16
12 12 12 13 13 13 13 13 13 13 13 14 14 14 14 14 15 15 15 15 15 15 15 15 15 15 15 15 15 15 15 15 15 16 16 16 16 16
12 12 12 13 13 13 13 13 13 13 13 14 14 14 14 14 14 14 15 15 15 15 15 15 15 15 15 15 15 15 15 15 15 15 15 15 15 15
13 12 13 13 13 13 13 13 13 13 13 13 14 14 14 14 14 14 14 14 15 15 15 15 15 15 15 15 15 15 15 15 15 15 15 15 15 15
13 12 13 12 13 13 13 13 13 13 13 13 13 14 14 14 14 14 14 14 14 14 14 15 15 15 15 15 15 15 15 15 15 15 15 15 15 15
13 12 12 12 13 13 13 13 13 13 13 13 13 13 13 13 14 14 14 14 14 14 14 14 14 14 14 14 15 15 15 14 14 14 14 14 15 15
13 13 13 13 13 13 13 13 13 13 13 13 13 13 13 13 13 13 13 14 14 14 14 14 14 14 14 14 14 14 14 14 14 14 14 14 14 14
13 13 13 13 13 13 13 13 13 13 13 13 13 13 13 13 13 13 13 13 13 13 13 14 13 14 14 14 14 14 14 14 14 14 14 14 14 14
13 13 13 13 13 13 13 13 13 13 13 13 13 13 13 13 13 13 13 13 13 13 13 13 13 13 13 13 13 13 13 13 13 13 13 13 13 13
13 13 13 13 13 13 13 13 13 13 13 13 13 13 13 13 13 13 13 13 13 13 13 13 13 13 13 13 13 13 13 13 13 13 13 13 13 13
13 13 13 13 13 13 13 13 13 13 13 13 13 13 12 12 12 12 12 12 12 12 12 12 12 12 13 12 12 12 12 12 12 12 12 13 13 13
13 13 13 13 13 12 12 12 12 12 12 12 12 12 12 12 12 12 12 12 12 12 12 12 12 12 12 12 12 12 12 12 12 12 12 12 12 12
13 13 13 13 12 12 12 12 12 12 12 12 12 12 12 12 12 12 12 12 11 11 11 11 11 11 11 11 11 11 11 11 11 12 12 12 12 12
13 13 13 12 12 12 12 12 12 12 12 12 12 12 12 12 11 11 11 11 11 11 11 11 11 11 11 11 11 11 11 11 11 11 11 11 11 11
13 12 12 12 12 12 12 12 12 11 11 11 11 11 11 11 11 11 11 11 11 11 10 10 10 10 10 10 10 10 10 10 10 10 10 10 10 10
12 12 12 12 12 12 11 11 11 11 11 11 11 11 11 11 11 11 10 10 10 10 10 10 10 10 10 10 10 10 9 9 9 9 10 10 10 10
12 12 12 12 11 11 11 11 11 11 11 11 10 10 10 10 10 10 10 10 10 10 10 10 10 9 9 9 9 9 9 9 9 9 9 9 9 9
12 12 12 11 11 11 11 11 11 10 10 10 10 10 10 10 10 9 9 9 9 9 9 9 9 9 9 9 8 8 8 8 8 8 8 8 9 9
12 12 11 11 11 11 11 10 10 10 10 10 9 9 9 9 9 9 9 8 8 8 8 8 8 8 8 8 8 8 7 8 8 8 8 8 8 8
11 11 11 11 11 11 10 10 10 10 9 9 9 9 8 8 8 8 8 8 8 8 7 7 7 7 7 7 7 7 7 6 7 7 7 7 7 7
11 11 11 11 10 10 10 10 9 9 9 8 8 8 8 8 8 7 7 7 7 7 7 7 6 6 6 6 6 6 6 6 5 5 6 6 6 7
11 11 11 10 10 10 10 9 9 9 8 8 8 7 7 7 7 7 7 6 6 6 6 6 6 5 5 5 5 5 5 5 5 5 5 5 4 5
11 10 10 10 10 9 9 9 8 8 8 7 7 7 7 7 6 6 6 6 6 5 5 5 5 5 4 4 4 4 4 4 4 4 4 4 4 4
Wind_Speed
2 2 1 1 1 2 2 2 3 1 1 2 1 2 2 1 1 1 1 2 4 5 6 7 8 8 8 8 8 9 9 9 9 9 10 10 10 11
1 1 1 1 1 1 2 2 2 3 1 2 2 2 1 1 1 1 1 2 3 4 5 6 7 8 8 8 8 8 9 9 9 9 9 9 9 10
1 1 2 1 1 1 2 2 2 2 2 1 1 1 1 1 1 1 0 1 1 3 4 5 7 8 8 8 8 8 8 9 9 9 9 9 9 9
2 1 2 1 1 2 2 2 2 3 3 2 1 1 1 1 0 0 1 0 0 3 4 4 5 7 7 8 8 8 8 8 9 9 9 9 9 9
2 2 2 2 2 2 2 2 2 2 2 2 1 1 1 1 1 1 1 1 1 1 3 3 4 5 6 6 7 8 8 8 9 9 8 8 9 9
2 3 3 3 3 3 3 3 2 2 2 2 1 1 1 0 1 0 1 1 1 1 0 1 2 3 4 5 6 7 8 8 9 9 9 9 8 9
2 2 3 4 5 4 3 4 4 3 2 2 1 1 1 0 1 1 0 1 1 0 0 0 0 0 1 3 5 7 8 8 9 8 8 8 9 9
2 2 3 3 4 5 6 6 6 5 4 3 2 3 2 2 1 1 1 1 1 1 1 1 0 1 1 2 3 5 6 7 7 7 7 8 8 9
2 2 2 2 2 1 2 3 4 6 6 5 4 4 3 4 3 2 2 2 2 1 1 1 0 1 1 2 2 3 4 4 5 5 6 7 7 8
3 3 2 2 2 2 2 1 1 2 4 4 5 5 4 4 4 3 3 1 0 1 1 1 1 1 1 1 1 2 3 3 3 3 4 5 6 7
3 2 3 3 4 3 3 2 1 1 2 3 4 3 3 3 4 3 3 2 0 1 1 1 1 0 1 1 1 1 1 1 1 1 2 3 4 5
2 2 4 4 4 4 4 3 3 2 1 2 2 2 2 2 2 3 3 3 1 1 1 1 1 1 1 1 1 2 1 1 1 2 2 3 2 2
3 3 3 4 4 5 5 4 5 3 2 3 2 2 2 2 2 1 1 2 2 2 1 1 1 1 1 0 1 1 1 1 2 2 3 3 2 1
4 4 3 4 4 4 4 3 4 4 3 3 3 2 1 1 1 1 2 2 2 1 1 1 1 1 1 1 1 1 1 2 2 2 2 3 2 2
5 6 5 5 4 2 3 4 4 3 3 3 2 1 1 1 1 2 3 4 5 5 5 3 1 1 1 1 1 1 1 1 2 2 2 2 2 2
4 4 6 5 4 3 3 3 2 3 4 3 2 1 1 2 2 1 2 2 2 3 5 6 4 2 1 0 1 1 1 1 2 3 2 2 2 2
5 3 2 3 3 2 2 2 2 3 3 2 3 2 2 2 1 1 2 2 2 1 2 3 5 4 2 1 0 1 1 1 2 3 2 3 3 3
7 4 5 5 5 5 4 3 2 3 3 3 3 3 3 3 2 2 2 3 3 2 1 1 2 2 2 3 3 1 1 2 3 3 2 3 4 4
6 6 6 7 6 6 5 5 4 3 3 4 4 4 3 3 3 3 3 3 2 2 1 1 2 2 1 1 3 4 2 2 3 3 3 3 4 6
5 6 7 7 6 6 6 5 5 4 4 4 4 4 4 4 3 3 3 3 2 2 1 1 1 1 1 1 1 2 4 3 3 4 4 4 5 6
7 6 6 7 6 7 6 6 6 6 5 5 4 5 4 4 4 3 3 4 3 2 1 0 2 2 0 1 0 2 3 5 4 3 4 4 5 4
8 8 7 7 7 7 7 7 6 6 6 5 5 5 4 4 5 5 4 3 2 2 1 0 1 1 1 0 1 3 4 5 6 7 6 4 3 3
8 8 7 7 7 7 7 8 8 7 6 6 6 5 5 4 4 4 4 3 3 3 2 0 1 1 1 0 1 2 4 5 5 4 5 8 8 8
Wind_Direction
207 201 203 219 190 186 170 159 153 153 269 291 309 311 323 16 38 89 137 195 192 197 199 196 195 201 207 209 211 211 211 210 210 213 216 220 223 223
203 195 219 220 197 183 176 168 158 161 200 266 271 296 320 352 69 82 184 180 178 183 192 195 195 198 206 211 215 214 209 205 207 213 218 220 221 222
241 209 232 209 191 190 174 165 169 162 187 271 280 303 337 348 21 38 74 154 180 184 184 195 198 202 206 210 209 207 207 202 203 210 216 218 223 226
246 222 244 204 188 185 177 181 187 185 178 215 282 308 317 293 308 62 0 65 160 190 188 194 200 202 204 203 202 202 205 204 205 210 215 219 225 228
233 224 238 210 219 206 195 195 199 186 176 181 228 290 309 346 36 22 30 4 331 193 181 185 199 206 209 206 207 207 207 208 211 214 216 223 228 232
237 234 234 220 225 216 206 203 189 173 166 168 193 240 263 309 108 84 357 359 333 355 66 182 209 204 212 216 214 211 210 210 212 214 218 222 227 234
254 249 243 236 228 214 202 195 181 177 174 174 188 196 214 179 204 198 247 322 325 4 30 3 110 173 235 235 223 215 211 210 210 213 218 224 229 234
248 267 263 256 253 237 221 202 187 182 185 182 190 194 209 205 198 184 162 109 304 329 59 305 134 228 254 244 231 218 212 210 212 217 224 231 236 240
229 249 266 267 265 238 231 212 208 207 194 184 190 203 199 197 179 179 185 184 216 247 73 282 247 229 260 271 231 204 196 197 208 219 228 235 241 246
230 231 237 260 252 201 184 178 214 234 220 203 199 205 207 197 188 181 173 153 315 286 166 212 266 260 298 312 240 190 182 187 203 223 233 241 246 252
247 242 230 241 250 195 163 176 201 283 260 190 181 186 192 184 164 141 147 149 212 260 166 170 195 336 338 343 16 87 154 193 269 274 264 261 259 259
251 258 246 238 237 199 178 180 200 234 181 122 111 89 84 99 130 158 167 165 173 222 194 151 164 91 12 356 20 17 22 7 344 326 317 301 285 261
225 244 250 233 218 204 187 193 207 188 151 133 114 93 75 67 64 85 135 160 169 206 188 144 158 148 161 277 349 16 36 26 12 0 351 335 313 260
215 224 226 209 196 189 183 182 165 141 127 120 114 107 96 82 62 73 88 84 97 145 130 115 147 168 164 204 264 332 15 13 13 0 2 356 342 306
210 205 193 182 173 172 164 154 142 132 133 138 150 159 152 138 92 83 77 78 69 62 54 54 100 132 154 194 223 295 328 357 11 5 0 356 343 336
198 181 165 154 141 132 124 131 133 146 150 157 157 148 112 100 93 86 94 86 79 43 31 38 42 92 129 172 211 280 324 339 351 349 342 337 343 340
168 148 147 152 157 149 132 125 130 135 142 144 145 142 131 115 83 63 85 83 93 76 21 19 32 50 61 83 85 32 20 357 343 340 339 331 323 329
162 174 184 185 186 184 178 171 166 166 164 156 153 154 150 143 123 92 88 104 109 98 69 19 17 32 42 43 39 46 14 344 336 337 331 318 312 321
177 189 191 192 191 186 183 181 182 177 162 154 153 154 148 141 133 126 117 111 110 103 62 24 26 59 54 318 349 22 10 334 329 328 323 308 299 309
194 194 196 193 188 186 183 179 171 160 155 154 152 152 151 145 140 139 138 135 131 114 80 40 31 44 191 232 278 333 2 341 325 318 313 307 295 295
199 197 193 189 187 183 179 173 169 167 161 157 157 156 154 145 144 147 144 137 128 127 127 306 295 313 286 87 344 318 335 348 339 312 312 316 317 322
197 196 192 186 182 177 173 168 165 164 162 158 159 156 152 147 150 151 152 150 151 153 157 312 343 17 57 94 288 300 314 329 342 346 341 319 297 303
196 190 185 182 178 172 170 170 169 169 168 164 161 158 153 148 147 149 152 151 146 140 131 83 11 29 9 287 286 299 308 317 323 328 327 327 316 300
Height
1491 1491 1492 1492 1493 1494 1495 1496 1497 1497 1497 1498 1499 1499 1500 1502 1504 1505 1507 1508 1510 1512 1514 1516 1518 1520 1522 1524 1526 1528 1530 1532 1534 1535 1537 1539 1541 1542
1490 1490 1491 1491 1492 1493 1493 1494 1495 1496 1497 1497 1498 1498 1499 1500 1502 1503 1505 1506 1508 1509 1511 1513 1515 1517 1519 1521 1523 1525 1527 1528 1530 1532 1534 1535 1537 1538
1489 1489 1490 1490 1491 1492 1492 1493 1494 1495 1495 1496 1497 1498 1498 1499 1500 1501 1503 1504 1505 1507 1509 1510 1512 1514 1516 1518 1520 1521 1523 1525 1526 1528 1530 1531 1533 1534
1489 1489 1489 1489 1489 1490 1491 1492 1492 1493 1494 1495 1496 1496 1497 1498 1499 1500 1501 1502 1503 1505 1506 1508 1510 1512 1513 1515 1516 1518 1519 1521 1523 1524 1526 1527 1529 1530
1488 1488 1488 1488 1488 1489 1490 1490 1491 1492 1493 1493 1494 1495 1496 1496 1497 1498 1499 1500 1501 1502 1504 1505 1507 1508 1510 1512 1513 1514 1516 1517 1519 1520 1522 1523 1524 1526
1487 1487 1487 1487 1487 1488 1488 1489 1489 1490 1491 1492 1492 1493 1494 1495 1495 1496 1497 1498 1499 1500 1501 1503 1504 1505 1507 1508 1509 1511 1512 1513 1515 1516 1517 1519 1520 1521
1486 1486 1486 1486 1486 1486 1487 1487 1488 1489 1489 1490 1491 1492 1492 1493 1494 1494 1495 1496 1497 1498 1499 1500 1501 1502 1503 1504 1506 1507 1508 1509 1511 1512 1513 1514 1515 1516
1485 1485 1485 1485 1485 1485 1485 1486 1486 1487 1487 1488 1489 1489 1490 1491 1492 1493 1493 1494 1495 1496 1496 1497 1498 1499 1500 1501 1502 1503 1504 1505 1507 1508 1509 1510 1511 1512
1484 1484 1483 1483 1483 1483 1484 1484 1485 1485 1486 1486 1487 1487 1488 1489 1490 1491 1492 1492 1493 1493 1494 1494 1495 1496 1497 1498 1499 1500 1501 1502 1503 1504 1505 1505 1506 1507
1482 1482 1482 1482 1482 1482 1482 1482 1483 1483 1483 1484 1485 1485 1486 1487 1488 1489 1490 1490 1491 1491 1492 1492 1492 1493 1494 1495 1495 1496 1497 1498 1499 1500 1501 1501 1502 1502
1480 1480 1480 1480 1480 1480 1480 1480 1481 1481 1481 1482 1482 1483 1484 1485 1486 1487 1487 1488 1488 1489 1489 1489 1490 1490 1491 1492 1493 1493 1494 1495 1495 1496 1496 1497 1497 1497
1477 1477 1477 1477 1478 1478 1478 1478 1478 1479 1479 1480 1480 1481 1482 1483 1484 1485 1485 1486 1486 1487 1487 1487 1487 1488 1488 1489 1490 1490 1491 1491 1492 1492 1492 1492 1492 1492
1474 1474 1475 1475 1475 1476 1476 1476 1476 1477 1477 1478 1478 1479 1480 1481 1481 1482 1483 1484 1484 1484 1485 1485 1485 1486 1486 1486 1486 1487 1488 1488 1488 1488 1488 1488 1488 1487
1470 1471 1472 1472 1473 1473 1473 1474 1474 1474 1475 1475 1476 1477 1477 1478 1479 1480 1480 1481 1482 1482 1482 1483 1483 1483 1483 1483 1483 1484 1484 1484 1484 1484 1484 1484 1483 1483
1466 1467 1468 1469 1469 1470 1471 1471 1472 1472 1472 1473 1473 1474 1475 1476 1477 1477 1478 1478 1479 1479 1480 1480 1480 1480 1481 1481 1480 1480 1480 1480 1480 1480 1479 1479 1479 1478
1462 1463 1464 1465 1466 1466 1467 1468 1468 1469 1470 1470 1471 1472 1473 1473 1474 1474 1475 1475 1476 1477 1477 1477 1477 1478 1478 1478 1478 1477 1477 1477 1476 1476 1476 1475 1475 1474
1456 1458 1459 1460 1461 1462 1463 1464 1465 1466 1466 1467 1468 1469 1470 1470 1471 1472 1472 1472 1473 1473 1474 1474 1474 1474 1474 1474 1474 1474 1474 1473 1473 1472 1472 1471 1471 1470
1451 1451 1453 1454 1456 1457 1458 1460 1461 1462 1462 1463 1465 1465 1466 1467 1468 1469 1469 1470 1470 1470 1470 1470 1471 1471 1471 1471 1472 1471 1470 1470 1469 1469 1468 1466 1466 1466
1444 1445 1447 1448 1450 1452 1453 1454 1456 1457 1458 1459 1461 1462 1463 1464 1464 1465 1466 1466 1467 1467 1467 1467 1467 1467 1468 1468 1468 1468 1467 1466 1465 1464 1463 1462 1461 1460
1437 1439 1440 1442 1444 1446 1448 1449 1451 1452 1454 1455 1456 1458 1459 1460 1461 1462 1462 1463 1463 1464 1464 1464 1464 1464 1465 1465 1464 1463 1463 1462 1461 1459 1458 1457 1456 1455
1430 1432 1434 1436 1438 1440 1442 1444 1446 1448 1449 1450 1452 1453 1455 1456 1457 1458 1459 1460 1460 1461 1461 1461 1461 1462 1461 1461 1461 1459 1459 1458 1457 1456 1454 1452 1451 1449
1423 1425 1427 1430 1432 1434 1436 1439 1441 1442 1444 1446 1448 1449 1451 1452 1453 1454 1455 1456 1456 1457 1457 1458 1458 1458 1458 1457 1456 1456 1455 1454 1453 1452 1451 1450 1447 1445
1415 1418 1420 1423 1425 1428 1430 1433 1435 1437 1439 1441 1443 1445 1447 1448 1449 1451 1451 1452 1453 1453 1454 1454 1454 1454 1454 1453 1453 1452 1451 1450 1449 1448 1447 1446 1444 1442